Regional Weather Roundup
Issued by NWS

Home | Current Version | Previous Version | Graphics & Text | Print | Product List | Glossary Off
Versions: 1 2 3 4 5 6 7 8 9 10 11 12 13 14 15 16 17 18 19 20 21 22 23 24 25 26 27

000
ASUS43 KDMX 180407
RWRIA

WEATHER ROUNDUP FOR IOWA
NATIONAL WEATHER SERVICE DES MOINES IA
1100 PM CDT THU APR 17 2014

NOTE: "FAIR" INDICATES FEW OR NO CLOUDS BELOW 12,000 FEET WITH NO
SIGNIFICANT WEATHER AND/OR OBSTRUCTIONS TO VISIBILITY.

* - THESE STATIONS ARE NOT NWS STATIONS...THUS NOT UNDER NWS
QUALITY CONTROL.  THEY ALSO DO NOT REPORT WEATHER SUCH
AS PRECIPITATION OR FOG.

IAZ001>003-012>014-020>022-031>034-043>046-180500-
   NORTHWEST IOWA

CITY           SKY/WX    TMP DP  RH WIND       PRES   REMARKS
CARROLL *      MOCLDY    39  28  65 E10       30.28S WCI  32
CHEROKEE *     PTCLDY    36  27  69 E7        30.28S WCI  30
DENISON *      MOCLDY    39  27  60 CALM      30.27R
LE MARS *      CLOUDY    43  28  56 E10       30.27S
ORANGE CITY *  CLOUDY    39  28  65 E6        30.27S WCI  35
SHELDON *      CLOUDY    34  28  80 NE8       30.28R WCI  27
SIOUX CITY     PTCLDY    42  26  53 E7        30.26S
SPENCER        CLEAR     31  27  85 NE6       30.29S WCI  25
STORM LAKE *   MOCLDY    36  28  75 E10       30.28S WCI  28
$$

IAZ055>058-069>071-079>083-090>094-180500-
   SOUTHWEST IOWA

CITY           SKY/WX    TMP DP  RH WIND       PRES   REMARKS
ATLANTIC *     CLOUDY    36  27  69 N5        30.27S WCI  32
AUDUBON *      CLEAR     32  21  64 CALM      30.28S
CLARINDA *     CLEAR     34  28  80 CALM      30.28S
COUNCIL BLFS * CLEAR     45  25  45 CALM      30.26S
CRESTON *      CLEAR     39  28  65 SE3       30.27S
HARLAN  *      CLEAR     39  25  56 CALM      30.30S
LAMONI         CLEAR     44  31  60 E5        30.27S
RED OAK *      CLEAR     36  28  75 CALM      30.27S
SHENANDOAH *   CLEAR     37  28  70 CALM      30.28S
$$

IAZ047>049-059>061-072>074-084-180500-
   CENTRAL IOWA

CITY           SKY/WX    TMP DP  RH WIND       PRES   REMARKS
AMES           CLEAR     37  30  75 E5        30.30S WCI  33
ANKENY *       CLEAR     39  32  75 NE6       30.30R WCI  35
CHARITON *     PTCLDY    43  32  65 E5        30.28S
DES MOINES     CLEAR     45  31  58 E8        30.29F
GRINNELL*      CLEAR     37  32  81 N9        30.29F WCI  31
KNOXVILLE *    CLEAR     43  30  61 NE7       30.28F
MARSHALLTOWN   CLEAR     33  29  85 NE8       30.30F WCI  26
NEWTON *       CLEAR     37  30  75 NE6       30.30S WCI  33
PELLA *        CLEAR     39  32  75 NE5       30.30F
PERRY *          N/A     41  30  65 E8        30.29F
$$

IAZ004>006-015-016-023>025-035-036-180500-
   NORTH CENTRAL IOWA

CITY           SKY/WX    TMP DP  RH WIND       PRES   REMARKS
ALGONA *       CLEAR     34  30  86 E6        30.30F WCI  29
CLARION *      PTCLDY    32  30  93 E7        30.31S WCI  26
ESTHERVILLE    CLEAR     28  27  96 NE7       30.29S WCI  21
FORT DODGE *   PTCLDY    32  27  80 E8        30.31S WCI  25
MASON CITY     CLEAR     28  25  88 CALM      30.33R
FOREST CITY *    N/A     28  28 100 CALM      30.31S FOG
IOWA FALLS *     N/A     34  30  86 NE5       30.31F WCI  30
$$

IAZ007>011-017>019-026>030-037>042-050>054-066-180500-
   NORTHEAST IOWA

CITY           SKY/WX    TMP DP  RH WIND       PRES   REMARKS
CEDAR RAPIDS   CLEAR     36  30  79 N10       30.29R WCI  28
CHARLES CITY * PTCLDY    34  28  80 N3        30.32R
CLINTON *      PTCLDY    37  30  75 N8        30.30R WCI  31
DECORAH *      CLOUDY    34  28  80 NW3       30.30S
DUBUQUE        CLEAR     36  31  82 N10       30.28S WCI  28
MONTICELLO *   CLEAR     36  32  87 N6        30.30R WCI  31
OELWEIN *      CLEAR    N/A N/A N/A NW5       30.31F
WATERLOO       CLEAR     32  29  88 CALM      30.31F
$$

IAZ064-065-067-068-078-180500-
   EAST CENTRAL IOWA

CITY           SKY/WX    TMP DP  RH WIND       PRES   REMARKS
DAVENPORT      PTCLDY    40  33  76 NW7       30.29S
IOWA CITY      CLEAR     43  34  70 N12       30.31R
MT. PLEASANT * CLEAR     43  32  65 N7        30.29R
MUSCATINE *    CLEAR     41  32  70 NW6       30.29S
QUAD CITIES    MOCLDY    42  34  73 W5        30.27S
$$

IAZ062-063-075>077-085>089-095>099-180500-
   SOUTHEAST IOWA

CITY           SKY/WX    TMP DP  RH WIND       PRES   REMARKS
BURLINGTON     PTCLDY    43  36  76 CALM      30.27F
FAIRFIELD *    CLEAR     37  30  75 N7        30.29S WCI  32
FORT MADISON * CLEAR     45  37  76 CALM      30.29S
KEOKUK *       CLEAR     43  36  75 W6        30.27F
OSKALOOSA *      N/A     37  32  81 N6        30.29S WCI  33
CENTERVILLE *  CLEAR     39  32  75 S3        30.29S
OTTUMWA        CLEAR     43  30  60 N7        30.28S
WASHINGTON *   CLEAR     39  32  75 NW7       30.29S WCI  34
$$

ABBREVIATIONS USED IN REMARKS
   TC - TEMPERATURES IN CELSIUS
  WCI - WIND CHILL INDEX
   HX - HEAT INDEX
  VSB - VISIBILITY
$$




USA.gov is the U.S. government's official web portal to all federal, state and local government web resources and services.